Location: Unspecified
(48.2082°N, 0.0000°E)
Time: 05:11:00
(UTC+00:00)

Transit 4A - Pass Details

Date: 25 June 2019
Orbit: 862 x 982 km, 66.8° (Epoch: 21 July)

Event Time Altitude Azimuth Distance (km) Brightness Sun altitude
Rises 09:28:55 0° 255° (WSW) 3,647 10.7 50.8°
Reaches altitude 10° 09:31:50 10° 266° (W) 2,717 10.1 51.3°
Maximum altitude 09:37:17 29° 325° (NW) 1,721 9.3 52.1°
Drops below altitude 10° 09:42:48 10° 24° (NNE) 2,746 10.5 52.9°
Sets 09:45:47 0° 36° (NE) 3,694 11.1 53.3°
